This demonstration page uses our WeatherBlox Daily Observations layout. Learn more.

Left ArrowRight Arrow

Hourly Observations for March 29, 2015

Temp ( °F °C ) Dew Point ( °F °C ) Humidity (%) Winds ( mph kmh ) Pressure ( in mb ) Visibility ( mi km ) Precip ( " mm )
12:53 am 00:53 Clear 62 16.7 33 0.6 34 34 NW 6 9 30.09 1019 10 16 0.00 0.00
1:53 am 01:53 Clear 62 16.7 31 -0.6 31 31 NNW 6 9 30.08 1019 10 16 0.00 0.03
2:53 am 02:53 Clear 62 16.7 31 -0.6 31 31 NNW 7 11 30.07 1018 10 16 0.00 0.00
3:53 am 03:53 Clear 63 17.2 30 -1.1 29 29 NNW 7 11 30.07 1018 10 16 0.00 0.00
4:53 am 04:53 Clear 61 16.1 31 -0.6 32 32 N 7 11 30.06 1018 10 16 0.00 0.03
5:53 am 05:53 Clear 63 17.2 31 -0.6 30 30 NNW 8 13 30.06 1018 10 16 0.00 0.00
6:53 am 06:53 Clear 59 15 34 1.1 39 39 NNW 7 11 30.08 1019 10 16 0.00 0.00
7:53 am 07:53 Sunny 61 16.1 35 1.7 38 38 NW 7 11 30.09 1019 10 16 0.00 0.00
8:53 am 08:53 Sunny 66 18.9 38 3.3 36 36 NNW 7 11 30.09 1019 10 16 0.00 0.00
9:53 am 09:53 Sunny 73 22.8 32 0 22 22 N 12 19 30.09 1019 10 16 0.00 0.00
10:53 am 10:53 Sunny 76 24.4 33 0.6 21 21 N 9 15 30.08 1019 10 16 0.00 0.00
11:53 am 11:53 Sunny 79 26.1 32 0 18 18 N 13 20 30.06 1018 10 16 0.00 0.00
12:53 pm 12:53 Sunny 82 27.8 34 1.1 18 18 N 7 11 30.03 1017 10 16 0.00 0.00
1:53 pm 13:53 Sunny 84 28.9 34 1.1 17 17 N 7 11 30.01 1016 10 16 0.00 0.00
2:53 pm 14:53 Sunny 87 30.6 31 -0.6 13 13 NE 8 13 29.98 1015 10 16 0.00 0.00
3:53 pm 15:53 Sunny 88 31.1 29 -1.7 12 12 N 3 6 29.95 1014 10 16 0.00 0.00
4:53 pm 16:53 Sunny 86 30 33 0.6 15 15 SSE 3 6 29.94 1014 10 16 0.00 0.00
5:53 pm 17:53 Sunny 86 30 35 1.7 16 16 S 5 7 29.93 1014 10 16 0.00 0.00
6:53 pm 18:53 Sunny 80 26.7 43 6.1 27 27 S 3 6 29.93 1014 10 16 0.00 0.00
7:53 pm 19:53 Clear 72 22.2 44 6.7 37 37 Calm 29.94 1014 10 16 0.00 0.00
8:53 pm 20:53 Clear 65 18.3 51 10.6 61 61 NE 7 11 29.96 1014 10 16 0.00 0.00
9:53 pm 21:53 Clear 68 20 45 7.2 44 44 Calm 29.97 1015 10 16 0.00 0.00
10:53 pm 22:53 Clear 62 16.7 47 8.3 58 58 Calm 29.98 1015 10 16 0.00 0.00
11:53 pm 23:53 Clear 58 14.4 49 9.4 72 72 Calm 30.00 1016 10 16 0.00 0.00

Powered by AerisWeather